GHGSAT-C7 (56209 NORAD) Tracking and Keplerian Element Data

This shows tracking and keplerian element data for the satellite.

Feedback or suggestion? Click here.




ElementValue
Catalog56209
NameGHGSAT-C7
Epoch Orbit2098
Epoch Day239.11863345
Epoch Year2023
RAAN133.1577
Inclination97.3942
Eccentricity0.0014878
Argument of Perigee114.0432
Mean Anonmoly246.2364
Mean Motion15.24265003
Decay Rate5.611E-05
L11 56209U 23054AH 23239.11863345 .00005611 00000+0 23208-3 0 9996
L22 56209 97.3942 133.1577 0014878 114.0432 246.2364 15.24265003 20982



Live tracking and technical data element details for GHGSAT-C7 (NORAD 56209). GHGSAT-C7 can be tracked NOW for your location showing map with azimuth and elevation plus other details from your city location.







IsCatalogInMostPopularTable: catalog: 56209, numindb: 11
Update: records affected: 1



GetName: 56209 GHGSAT-C7

Hit Count: updated at: Thu, 28 Sep 2023 04:50:59 GMT